Location: Old Broadwell Mill Observatory
(33.8015°N, 85.8137°W)
Time: 19:19:37
(UTC-05:00)

Daily predictions for brighter satellites

Satellite Brightness Start Highest point End
(mag) Time Altitude Azimuth Time Altitude Azimuth Time Altitude Azimuth
Cosmos 2297 Rocket 2.2 20:19:57 10° S 20:25:33 70° ESE 20:31:11 10° NNE
Resurs 01 Rocket 1.9 20:23:18 10° S 20:27:41 75° WSW 20:32:06 10° NNW
Cosmos 1939 Rocket 3.6 20:28:10 10° SE 20:31:49 37° ENE 20:35:33 10° N
Cosmos 407 Rocket 4.3 20:27:26 10° SSW 20:32:27 56° WNW 20:37:29 10° N
Cosmos 1821 Rocket 4.2 20:26:34 10° N 20:32:59 83° W 20:39:19 10° S
Cosmos 1867 4.4 20:28:44 10° SSE 20:33:16 28° ESE 20:37:50 10° NE
Cosmos 1023 Rocket 4.5 20:29:10 10° S 20:34:14 61° ESE 20:39:17 10° NNE
Cosmos 1378 4.0 20:34:06 10° SSW 20:37:46 54° W 20:41:29 10° N
Resurs 1-3 4.1 20:34:22 10° S 20:38:41 62° W 20:43:02 10° NNW
Cosmos 1340 Rocket 3.3 20:38:24 10° SSE 20:42:09 40° E 20:45:57 10° NNE
Cosmos 1954 Rocket 4.1 20:40:39 10° SSW 20:45:52 82° WNW 20:51:04 10° NNE
Meteor 2-5 Rocket 4.4 20:40:08 10° SSW 20:45:54 60° W 20:51:34 10° N
ATLAS 5 CENTAUR R/B 1.8 20:41:38 10° SSW 20:46:03 54° ESE 20:50:48 10° NE
Spot 1 4.3 20:42:30 10° SSE 20:46:23 46° ENE 20:50:22 10° N
Cosmos 1934 Rocket 4.1 20:40:58 10° N 20:47:09 83° W 20:53:12 10° S
Cosmos 1980 3.7 20:42:13 10° NNW 20:47:56 81° ENE 20:53:36 10° SSE
OAO 1 Rocket 4.5 20:44:23 10° WSW 20:49:41 64° SSE 20:54:59 10° E
SJ-11-01 4.4 20:45:30 10° SSE 20:50:11 66° ENE 20:54:54 10° N
Cosmos 1850 Rocket 4.2 20:45:44 10° S 20:50:39 46° ESE 20:55:36 10° NNE
Skynet4D Del rocket 4.3 20:46:49 10° WSW 20:52:17 43° S 20:57:37 14° ESE
Cosmos 2084 3.5 20:48:32 10° S 20:52:28 45° ESE 20:56:12 10° NE
Cosmos 614 Rocket 3.9 20:47:57 10° S 20:53:08 76° ESE 20:58:21 10° NNE
YAOGAN 6 3.1 20:50:59 13° SE 20:53:54 42° ENE 20:57:23 10° N
Helios 1A 2.9 20:52:17 10° SSE 20:56:25 76° ENE 21:00:33 10° N
CZ-4B DEB 2.9 20:54:45 16° SSE 20:56:54 48° ENE 20:59:47 10° N
Cosmos 1605 Rocket 4.0 20:51:15 10° N 20:57:32 81° E 21:03:52 10° S
Cosmos 2237 Rocket 2.2 20:52:40 10° NNW 20:58:19 90° WSW 21:03:42 11° SSE
Helios 1B rocket 2.5 20:55:10 10° N 20:59:20 81° WNW 21:03:27 10° SSW
CZ-3B R/B 3.1 20:58:23 10° SSW 21:00:40 57° ESE 21:06:29 10° NE
Meteor 2-15 Rocket 4.4 20:55:20 10° S 21:01:22 78° E 21:07:26 10° N
USA 234 3.3 20:55:27 10° NE 21:01:55 60° SE 21:08:20 10° SSW
H-2A R/B 3.9 21:00:47 11° E 21:03:35 16° ENE 21:06:45 10° NNE
Cosmos 1842 Rocket 3.6 20:59:14 10° N 21:03:38 85° W 21:07:58 10° S
Atlas Centaur 2 1.3 21:01:06 10° W 21:04:36 47° S 21:06:40 21° ESE
ERS-1 Rocket 3.5 21:01:42 16° SE 21:05:21 42° ENE 21:10:04 10° N
Cosmos 2227 Rocket 3.8 21:03:50 10° SW 21:09:01 37° WNW 21:14:15 10° N
Sakura Rocket 4.4 21:01:09 10° WSW 21:09:14 50° S 21:14:11 15° ESE
Meteor 1-24 Rocket 4.4 21:05:27 10° SSW 21:11:20 60° W 21:17:05 10° N
Cosmos 1727 Rocket 4.2 21:05:26 10° S 21:11:43 79° W 21:18:05 10° N
Lacrosse 4 Rocket 4.4 21:09:04 10° WSW 21:12:16 21° WNW 21:15:33 10° N
Cosmos 1674 3.0 21:12:38 20° SSE 21:14:51 44° E 21:18:27 10° NNE
Cosmos 1741 Rocket 4.0 21:09:33 10° SSW 21:14:52 80° ESE 21:20:11 10° NNE
Cosmos 1184 Rocket 3.9 21:14:54 10° SSW 21:18:07 46° W 21:21:22 10° N
Cosmos 1908 4.0 21:15:09 10° NNE 21:18:43 34° E 21:20:03 27° ESE
SL-16 R/B 2.4 21:16:12 10° NNW 21:21:47 57° ENE 21:25:09 24° SE
SEDSat Delta rocket 4.0 21:19:00 10° W 21:22:48 28° SSW 21:24:14 23° SSE
ARGOS 3.8 21:20:18 22° SE 21:23:14 39° ENE 21:28:14 10° N
Cosmos 1408 Rocket 4.2 21:23:35 27° SE 21:25:06 36° E 21:29:03 10° NNE
KORONAS-FOTON 4.3 21:24:13 30° SE 21:25:22 38° E 21:28:55 10° NNE
MetOp-A 4.4 21:22:20 23° SE 21:25:34 54° ENE 21:30:47 10° N
NOSS 3-4 (A) 3.9 21:21:11 10° NNW 21:28:22 86° WSW 21:33:42 22° SSE
NOSS 3-4 (C) 3.9 21:21:16 10° NNW 21:28:28 86° WSW 21:33:47 22° SSE
Cosmos 1356 Rocket 3.4 21:27:26 20° S 21:30:15 69° E 21:34:31 10° NNE
Cosmos 1076 Rocket 3.4 21:27:30 18° S 21:30:39 74° E 21:35:00 10° N
Tiangong 1 3.8 21:31:24 10° NW 21:33:16 16° N 21:35:08 10° NNE
Terra 3.8 21:36:22 14° E 21:37:24 14° ENE 21:39:55 10° NNE
Cosmos 2219 Rocket 4.4 21:35:48 10° WNW 21:39:39 19° W 21:43:29 10° SW
Okean 3 Rocket 4.2 21:37:21 10° SSW 21:41:47 56° W 21:46:12 10° N
Cosmos 2333 Rocket 4.2 21:37:41 10° NW 21:42:00 23° W 21:46:18 10° SSW
Cosmos 2016 Rocket 4.2 21:38:50 10° N 21:44:54 50° E 21:47:31 31° SE
Cosmos 2221 2.8 21:42:02 10° NNW 21:46:24 68° W 21:48:41 27° S
NOAA 11 4.2 21:46:09 26° S 21:49:19 80° WSW 21:54:46 10° NNW
Cosmos 2227 4.1 21:46:06 10° SSW 21:51:50 80° ESE 21:57:34 10° NNE
Cosmos 2208 Rocket 4.0 21:46:53 10° NNW 21:52:14 81° ENE 21:54:24 37° SSE
SL-08 RB Rocket 3.7 21:56:03 47° SE 21:57:13 66° ENE 22:01:46 10° N
SPOT 1/Viking Rocket 3.7 21:56:35 40° SE 21:58:05 54° ENE 22:03:06 10° N
RESURS DK-1 3.7 21:55:31 10° N 21:59:03 26° ENE 21:59:21 26° ENE
YAOGAN 11 4.0 21:58:18 48° SSE 21:59:33 84° ENE 22:04:05 10° N
Cosmos 1766 Rocket 3.6 21:58:37 33° SSW 22:00:29 75° W 22:04:49 10° N
Cosmos 1242 Rocket 2.8 21:58:12 10° NNW 22:01:54 65° W 22:02:30 53° SSW
USA 245 2.8 22:03:34 81° NW 22:03:34 81° NW 22:07:07 10° NNW
EO 1 Delta rocket 3.9 22:04:01 48° SE 22:05:03 61° E 22:09:36 10° N
Cosmos 1570 Rocket 4.2 22:01:29 10° NNW 22:06:44 65° WSW 22:08:43 37° S
SL-14 R/B 3.3 22:10:43 65° ENE 22:10:43 65° ENE 22:14:26 10° NNE
Milstar 3 Cent rocket 4.1 22:03:20 10° W 22:11:13 52° S 22:18:44 30° SE
Cosmos 1328 Rocket 3.8 22:08:43 10° N 22:12:50 50° ENE 22:12:50 50° ENE
Cosmos 1763 Rocket 4.5 22:09:37 10° N 22:14:05 30° ENE 22:14:35 29° ENE
Cosmos 2228 Rocket 3.5 22:09:58 10° N 22:14:25 48° E 22:14:27 48° E
Cosmos 1328 3.7 22:15:50 75° ENE 22:15:50 75° ENE 22:19:42 10° N
Cosmos 1515 Rocket 4.3 22:12:24 10° N 22:16:02 37° ENE 22:16:02 37° ENE
Cosmos 1743 Rocket 3.4 22:16:54 70° E 22:16:54 70° E 22:21:13 10° NNE
H-2A R/B 3.4 22:17:20 26° ENE 22:17:20 26° ENE 22:20:37 10° NNE
Cosmos 2263 Rocket 2.5 22:21:44 45° E 22:21:44 45° E 22:26:47 10° NE
Cosmos 1626 4.2 22:25:42 19° NE 22:25:42 19° NE 22:27:05 10° NNE
Delta 2 Rocket 4.0 22:18:24 10° WSW 22:24:08 65° SSE 22:25:01 56° ESE
Cosmos 1151 Rocket 4.0 22:21:27 10° NNE 22:24:51 34° ENE 22:24:51 34° ENE
Cosmos 1300 3.1 22:21:50 10° N 22:25:01 58° NNE 22:25:01 58° NNE
SPOT 5 3.5 22:28:20 39° SW 22:29:31 47° W 22:34:19 10° NNW
SL-19 R/B 4.2 22:25:22 10° NNE 22:30:39 57° ESE 22:30:50 56° ESE
IGS 5A 4.1 22:33:58 46° NE 22:33:58 46° NE 22:37:20 10° N
Cosmos 2123 Rocket 4.2 22:30:34 33° SSW 22:33:25 68° W 22:39:37 10° N
Cosmos 1726 2.9 22:30:24 10° NNW 22:33:26 50° NW 22:33:26 50° NW
OAO 1 Rocket 4.5 22:30:01 10° W 22:35:24 78° N 22:36:51 49° ENE
Meteor 2-10 4.1 22:31:08 10° N 22:36:47 87° E 22:37:39 66° SSE
Lacrosse 5 2.4 22:32:46 10° NNW 22:37:39 46° NE 22:38:08 44° ENE
Cosmos 468 Rocket 3.9 22:36:15 10° NNW 22:41:23 73° WSW 22:41:44 70° SW
H-2A R/B 2.5 22:41:25 48° SW 22:42:25 56° W 22:47:43 10° NNW
Cosmos 371 Rocket 3.3 22:39:49 10° NNW 22:44:22 73° NE 22:44:22 73° NE
Cosmos 1603 3.6 22:43:11 10° NNW 22:48:49 74° WSW 22:49:18 69° SSW
Cosmos 1455 4.2 22:56:04 10° NNE 22:57:48 22° NNE 22:57:48 22° NNE
Landsat 7 4.4 22:59:49 48° W 22:59:49 48° W 23:04:20 10° NNW
Cosmos 1725 Rocket 4.5 22:55:03 10° NNW 23:01:05 52° W 23:02:34 43° SW
SL-16 R/B 4.3 23:02:09 10° WNW 23:05:18 15° W 23:07:03 13° WSW
Cosmos 1943 3.2 23:00:27 10° NNW 23:05:59 73° ENE 23:05:59 73° ENE
CZ-4C R/B 4.0 23:09:43 19° ENE 23:09:43 19° ENE 23:11:32 10° NE
deb Chang Zheng 4 4.3 23:03:31 10° N 23:07:04 53° NNW 23:07:04 53° NNW
CZ-4B R/B 3.6 23:08:22 10° NNE 23:13:10 74° N 23:13:10 74° N
Cosmos 2058 4.3 23:15:03 37° NW 23:15:03 37° NW 23:18:12 10° N
Terra 2.6 23:15:15 46° WNW 23:15:15 46° WNW 23:19:17 10° NNW
CZ-4 R/B 4.2 23:10:04 10° N 23:14:23 60° NW 23:14:23 60° NW
Cosmos 540 Rocket 4.3 23:14:31 10° N 23:18:37 41° NE 23:18:37 41° NE
Cosmos 1464 Rocket 4.1 23:20:07 10° N 23:25:54 61° ENE 23:25:54 61° ENE
Cosmos 1354 Rocket 4.4 23:26:34 58° NW 23:26:34 58° NW 23:31:26 10° N
CZ-2C R/B 3.7 23:33:43 10° NNE 23:37:06 35° NE 23:37:06 35° NE
Cosmos 2278 Rocket 4.4 23:49:02 13° ENE 23:49:02 13° ENE 23:50:02 10° ENE
Tsikada Rocket 4.2 23:50:58 61° ENE 23:50:58 61° ENE 23:56:34 10° NNE
H-2A R/B 4.4 23:54:27 18° WNW 23:54:27 18° WNW 23:56:16 10° NW
